YMA7002 YPKA-YBRM

Flight info

Callsign YMA7002
Flight time 0h 55m
Altitude 35000
Route KA J93 BRM
Aircraft B738/M-SDE2E3FGHIRWXY/LB1

Departure

Time 2026-04-18 09:08
Airport Karratha Airport (YPKA)

Arrival

Time 2026-04-18 10:04
Airport Broome International Airport (YBRM)
Time Latitude Longitude Altitude Speed Heading
2026-04-18 08:52 -20.70952 116.77071 40 ft 0 kts 30°
2026-04-18 08:52 -20.70957 116.77016 40 ft 0 kts 29°
2026-04-18 09:01 -20.70957 116.77017 40 ft 0 kts 29°
2026-04-18 09:02 -20.70956 116.77017 40 ft 0 kts 29°
2026-04-18 09:03 -20.70956 116.77018 40 ft 0 kts 40°
2026-04-18 09:03 -20.70967 116.77038 40 ft 5 kts 162°
2026-04-18 09:04 -20.71015 116.77048 40 ft 7 kts 169°
2026-04-18 09:04 -20.71075 116.77055 40 ft 9 kts 175°
2026-04-18 09:04 -20.71138 116.77052 42 ft 9 kts 205°
2026-04-18 09:04 -20.71168 116.77000 43 ft 8 kts 261°
2026-04-18 09:05 -20.71175 116.76932 43 ft 10 kts 265°
2026-04-18 09:05 -20.71180 116.76849 43 ft 11 kts 264°
2026-04-18 09:05 -20.71190 116.76755 43 ft 13 kts 261°
2026-04-18 09:05 -20.71203 116.76647 43 ft 15 kts 264°
2026-04-18 09:06 -20.71217 116.76530 43 ft 14 kts 252°
2026-04-18 09:06 -20.71283 116.76469 43 ft 11 kts 181°
2026-04-18 09:06 -20.71300 116.76471 43 ft 0 kts 175°
2026-04-18 09:07 -20.71305 116.76471 43 ft 2 kts 174°
2026-04-18 09:07 -20.71343 116.76475 43 ft 6 kts 173°
2026-04-18 09:07 -20.71386 116.76483 44 ft 6 kts 156°
2026-04-18 09:07 -20.71398 116.76511 44 ft 0 kts 90°
2026-04-18 09:08 -20.71398 116.76514 44 ft 2 kts 89°
2026-04-18 09:08 -20.71384 116.76640 44 ft 37 kts 82°
2026-04-18 09:08 -20.71309 116.77315 40 ft 142 kts 84°
2026-04-18 09:08 -20.71269 116.78559 675 ft 176 kts 89°
2026-04-18 09:09 -20.71284 116.79923 1390 ft 210 kts 89°
2026-04-18 09:09 -20.71314 116.81589 2031 ft 242 kts 89°
2026-04-18 09:09 -20.71150 116.83371 3099 ft 251 kts 73°
2026-04-18 09:09 -20.70516 116.85123 4037 ft 264 kts 67°
2026-04-18 09:10 -20.70019 116.87045 4996 ft 278 kts 79°
2026-04-18 09:10 -20.69762 116.89101 6037 ft 285 kts 82°
2026-04-18 09:10 -20.69512 116.91180 7069 ft 290 kts 81°
2026-04-18 09:10 -20.69194 116.93321 8100 ft 294 kts 79°
2026-04-18 09:11 -20.68833 116.95440 9121 ft 297 kts 79°
2026-04-18 09:11 -20.68444 116.97611 10003 ft 305 kts 79°
2026-04-18 09:11 -20.68029 116.99884 10691 ft 321 kts 79°
2026-04-18 09:11 -20.67646 117.01983 11270 ft 334 kts 79°
2026-04-18 09:12 -20.67111 117.04759 11997 ft 352 kts 76°
2026-04-18 09:12 -20.66298 117.07280 12582 ft 369 kts 67°
2026-04-18 09:12 -20.65196 117.09799 13140 ft 387 kts 64°
2026-04-18 09:12 -20.63954 117.12410 13682 ft 404 kts 63°
2026-04-18 09:13 -20.62663 117.15129 14335 ft 415 kts 63°
2026-04-18 09:13 -20.61378 117.17920 15065 ft 424 kts 64°
2026-04-18 09:13 -20.60118 117.20734 15806 ft 430 kts 64°
2026-04-18 09:13 -20.58836 117.23655 16573 ft 435 kts 64°
2026-04-18 09:14 -20.57567 117.26581 17225 ft 443 kts 64°
2026-04-18 09:14 -20.56267 117.29595 17859 ft 451 kts 65°
2026-04-18 09:14 -20.54961 117.32629 18475 ft 458 kts 65°
2026-04-18 09:14 -20.53612 117.35761 19092 ft 466 kts 65°
2026-04-18 09:15 -20.52266 117.38886 19730 ft 471 kts 65°
2026-04-18 09:15 -20.50896 117.42062 20354 ft 477 kts 64°
2026-04-18 09:15 -20.49495 117.45306 20962 ft 483 kts 64°
2026-04-18 09:15 -20.48096 117.48543 21555 ft 488 kts 64°
2026-04-18 09:16 -20.46667 117.51845 22143 ft 493 kts 64°
2026-04-18 09:16 -20.45226 117.55174 22716 ft 499 kts 64°
2026-04-18 09:16 -20.43758 117.58560 23285 ft 504 kts 64°
2026-04-18 09:16 -20.42301 117.61919 23846 ft 509 kts 64°
2026-04-18 09:17 -20.40801 117.65377 24442 ft 513 kts 64°
2026-04-18 09:17 -20.39314 117.68803 25010 ft 518 kts 64°
2026-04-18 09:17 -20.37803 117.72284 25718 ft 517 kts 64°
2026-04-18 09:17 -20.36299 117.75749 26520 ft 514 kts 63°
2026-04-18 09:18 -20.34799 117.79202 27300 ft 512 kts 63°
2026-04-18 09:18 -20.33318 117.82609 27847 ft 515 kts 63°
2026-04-18 09:18 -20.31803 117.86090 28461 ft 518 kts 63°
2026-04-18 09:18 -20.30307 117.89523 29244 ft 517 kts 63°
2026-04-18 09:19 -20.28784 117.93019 30041 ft 515 kts 63°
2026-04-18 09:19 -20.27302 117.96416 30815 ft 512 kts 63°
2026-04-18 09:19 -20.25796 117.99868 31595 ft 510 kts 62°
2026-04-18 09:19 -20.24309 118.03274 32370 ft 508 kts 62°
2026-04-18 09:20 -20.22826 118.06667 33193 ft 505 kts 62°
2026-04-18 09:20 -20.21366 118.10005 33839 ft 506 kts 63°
2026-04-18 09:20 -20.19880 118.13396 34056 ft 508 kts 63°
2026-04-18 09:20 -20.18398 118.16781 34037 ft 501 kts 63°
2026-04-18 09:21 -20.15489 118.23422 33965 ft 495 kts 63°
2026-04-18 09:21 -20.12567 118.30079 33933 ft 495 kts 63°
2026-04-18 09:22 -20.09638 118.36739 34258 ft 501 kts 63°
2026-04-18 09:22 -20.08175 118.40066 34896 ft 496 kts 63°
2026-04-18 09:22 -20.06735 118.43340 35386 ft 496 kts 63°
2026-04-18 09:23 -20.05271 118.46664 35976 ft 496 kts 63°
2026-04-18 09:23 -20.03812 118.49977 36544 ft 495 kts 63°
2026-04-18 09:23 -20.02345 118.53303 36902 ft 498 kts 62°
2026-04-18 09:23 -20.00877 118.56629 36976 ft 499 kts 62°
2026-04-18 09:24 -19.97973 118.63206 36984 ft 489 kts 62°
2026-04-18 09:24 -19.95102 118.69705 36947 ft 488 kts 62°
2026-04-18 09:25 -19.92216 118.76225 36891 ft 486 kts 62°
2026-04-18 09:25 -19.89341 118.82713 36900 ft 486 kts 62°
2026-04-18 09:26 -19.86471 118.89188 36914 ft 486 kts 62°
2026-04-18 09:26 -19.83607 118.95635 36913 ft 480 kts 62°
2026-04-18 09:27 -19.80768 119.02020 36913 ft 480 kts 62°
2026-04-18 09:27 -19.77929 119.08395 36912 ft 480 kts 62°
2026-04-18 09:28 -19.75083 119.14778 36912 ft 480 kts 62°
2026-04-18 09:28 -19.72222 119.21188 36912 ft 480 kts 62°
2026-04-18 09:29 -19.69362 119.27589 36912 ft 480 kts 62°
2026-04-18 09:29 -19.66504 119.33981 36912 ft 480 kts 62°
2026-04-18 09:30 -19.63650 119.40354 36911 ft 480 kts 62°
2026-04-18 09:30 -19.60808 119.46693 36911 ft 480 kts 62°
2026-04-18 09:31 -19.57945 119.53072 36911 ft 480 kts 62°
2026-04-18 09:31 -19.55074 119.59463 36911 ft 480 kts 62°
2026-04-18 09:32 -19.52219 119.65810 36910 ft 480 kts 62°
2026-04-18 09:32 -19.49346 119.72190 36910 ft 480 kts 62°
2026-04-18 09:33 -19.46468 119.78573 36910 ft 480 kts 62°
2026-04-18 09:33 -19.43605 119.84916 36909 ft 481 kts 62°
2026-04-18 09:34 -19.40728 119.91284 36909 ft 480 kts 62°
2026-04-18 09:34 -19.37836 119.97676 36908 ft 479 kts 62°
2026-04-18 09:35 -19.34966 120.04014 36908 ft 479 kts 62°
2026-04-18 09:35 -19.32091 120.10357 36907 ft 479 kts 62°
2026-04-18 09:36 -19.29209 120.16709 36907 ft 479 kts 62°
2026-04-18 09:36 -19.26337 120.23027 36906 ft 478 kts 62°
2026-04-18 09:37 -19.23464 120.29345 36904 ft 478 kts 62°
2026-04-18 09:37 -19.20588 120.35664 36904 ft 478 kts 62°
2026-04-18 09:38 -19.17708 120.41981 36903 ft 477 kts 62°
2026-04-18 09:38 -19.14729 120.48237 36902 ft 475 kts 59°
2026-04-18 09:39 -19.11451 120.54295 36900 ft 475 kts 57°
2026-04-18 09:39 -19.08099 120.60291 36899 ft 475 kts 57°
2026-04-18 09:40 -19.04771 120.66281 36897 ft 474 kts 57°
2026-04-18 09:40 -19.01465 120.72289 36896 ft 474 kts 57°
2026-04-18 09:41 -18.98171 120.78308 36894 ft 474 kts 57°
2026-04-18 09:41 -18.96540 120.81298 36785 ft 471 kts 57°
2026-04-18 09:41 -18.94925 120.84259 36446 ft 466 kts 57°
2026-04-18 09:42 -18.93307 120.87226 35926 ft 464 kts 57°
2026-04-18 09:42 -18.91703 120.90164 35272 ft 466 kts 57°
2026-04-18 09:42 -18.90092 120.93110 34552 ft 469 kts 57°
2026-04-18 09:42 -18.88458 120.96098 33728 ft 473 kts 57°
2026-04-18 09:43 -18.86812 120.99104 32800 ft 475 kts 57°
2026-04-18 09:43 -18.85158 121.02125 31915 ft 475 kts 57°
2026-04-18 09:43 -18.83506 121.05141 31043 ft 475 kts 57°
2026-04-18 09:43 -18.81860 121.08148 30150 ft 475 kts 58°
2026-04-18 09:44 -18.80215 121.11154 29217 ft 475 kts 58°
2026-04-18 09:44 -18.78583 121.14136 28325 ft 474 kts 58°
2026-04-18 09:44 -18.76933 121.17150 27563 ft 469 kts 58°
2026-04-18 09:44 -18.75325 121.20087 26930 ft 462 kts 58°
2026-04-18 09:45 -18.73733 121.22994 26300 ft 456 kts 58°
2026-04-18 09:45 -18.72166 121.25851 25659 ft 452 kts 58°
2026-04-18 09:45 -18.70578 121.28742 24996 ft 455 kts 58°
2026-04-18 09:45 -18.69000 121.31614 24334 ft 453 kts 58°
2026-04-18 09:46 -18.67446 121.34440 23670 ft 449 kts 59°
2026-04-18 09:46 -18.65891 121.37268 22995 ft 444 kts 59°
2026-04-18 09:46 -18.64351 121.40067 22321 ft 440 kts 59°
2026-04-18 09:46 -18.62828 121.42834 21648 ft 435 kts 59°
2026-04-18 09:47 -18.61323 121.45567 20983 ft 431 kts 59°
2026-04-18 09:47 -18.59826 121.48286 20320 ft 427 kts 59°
2026-04-18 09:47 -18.58333 121.50996 19650 ft 423 kts 59°
2026-04-18 09:47 -18.56873 121.53645 18999 ft 419 kts 60°
2026-04-18 09:48 -18.55428 121.56265 18383 ft 414 kts 60°
2026-04-18 09:48 -18.53982 121.58888 17756 ft 409 kts 60°
2026-04-18 09:48 -18.52576 121.61446 17117 ft 405 kts 60°
2026-04-18 09:48 -18.51161 121.64012 16469 ft 402 kts 60°
2026-04-18 09:49 -18.49786 121.66503 15831 ft 398 kts 60°
2026-04-18 09:49 -18.48400 121.69009 15193 ft 394 kts 60°
2026-04-18 09:49 -18.47024 121.71499 14554 ft 390 kts 60°
2026-04-18 09:49 -18.45681 121.73926 13928 ft 386 kts 60°
2026-04-18 09:50 -18.44339 121.76349 13296 ft 382 kts 60°
2026-04-18 09:50 -18.43007 121.78753 12666 ft 378 kts 60°
2026-04-18 09:50 -18.41683 121.81144 12175 ft 370 kts 60°
2026-04-18 09:50 -18.40431 121.83405 11938 ft 355 kts 60°
2026-04-18 09:51 -18.39175 121.85668 11810 ft 363 kts 59°
2026-04-18 09:51 -18.37894 121.87981 11646 ft 364 kts 59°
2026-04-18 09:51 -18.36614 121.90290 11480 ft 362 kts 59°
2026-04-18 09:51 -18.35364 121.92545 11315 ft 350 kts 59°
2026-04-18 09:52 -18.34136 121.94759 11170 ft 356 kts 59°
2026-04-18 09:52 -18.32891 121.97001 11000 ft 357 kts 59°
2026-04-18 09:52 -18.31641 121.99253 10708 ft 353 kts 59°
2026-04-18 09:52 -18.30423 122.01446 10448 ft 340 kts 59°
2026-04-18 09:53 -18.29272 122.03519 10318 ft 323 kts 59°
2026-04-18 09:53 -18.28163 122.05513 10183 ft 309 kts 59°
2026-04-18 09:53 -18.27086 122.07451 9925 ft 300 kts 60°
2026-04-18 09:53 -18.26049 122.09319 9525 ft 298 kts 60°
2026-04-18 09:54 -18.24999 122.11206 9125 ft 295 kts 60°
2026-04-18 09:54 -18.23973 122.13051 8741 ft 292 kts 60°
2026-04-18 09:54 -18.22954 122.14881 8362 ft 289 kts 60°
2026-04-18 09:54 -18.21940 122.16711 7986 ft 287 kts 60°
2026-04-18 09:55 -18.20945 122.18489 7623 ft 284 kts 60°
2026-04-18 09:55 -18.19952 122.20267 7258 ft 281 kts 61°
2026-04-18 09:55 -18.18973 122.22021 6899 ft 278 kts 61°
2026-04-18 09:55 -18.17994 122.23782 6535 ft 276 kts 62°
2026-04-18 09:56 -18.17040 122.25495 6176 ft 273 kts 62°
2026-04-18 09:56 -18.16078 122.27222 5814 ft 270 kts 62°
2026-04-18 09:56 -18.15136 122.28909 5458 ft 268 kts 61°
2026-04-18 09:56 -18.14198 122.30586 5104 ft 266 kts 61°
2026-04-18 09:57 -18.13255 122.32272 4748 ft 264 kts 61°
2026-04-18 09:57 -18.12345 122.33903 4510 ft 257 kts 61°
2026-04-18 09:57 -18.11455 122.35497 4421 ft 245 kts 61°
2026-04-18 09:57 -18.10615 122.37003 4351 ft 238 kts 62°
2026-04-18 09:58 -18.09768 122.38521 4277 ft 240 kts 61°
2026-04-18 09:58 -18.08907 122.39991 4197 ft 229 kts 57°
2026-04-18 09:58 -18.07814 122.41142 4111 ft 219 kts 33°
2026-04-18 09:58 -18.06391 122.41534 3893 ft 211 kts
2026-04-18 09:59 -18.04957 122.41390 3631 ft 204 kts 355°
2026-04-18 09:59 -18.03571 122.41239 3406 ft 196 kts 357°
2026-04-18 09:59 -18.02236 122.41128 3225 ft 187 kts 358°
2026-04-18 10:00 -17.99896 122.40369 2961 ft 176 kts 314°
2026-04-18 10:00 -17.99265 122.39277 2777 ft 179 kts 290°
2026-04-18 10:00 -17.98924 122.38038 2558 ft 176 kts 284°
2026-04-18 10:00 -17.98611 122.36793 2357 ft 176 kts 285°
2026-04-18 10:01 -17.98277 122.35538 2160 ft 175 kts 285°
2026-04-18 10:01 -17.97956 122.34334 2008 ft 172 kts 285°
2026-04-18 10:01 -17.97637 122.33138 1786 ft 165 kts 285°
2026-04-18 10:01 -17.97335 122.32001 1677 ft 157 kts 285°
2026-04-18 10:02 -17.97045 122.30907 1408 ft 154 kts 285°
2026-04-18 10:02 -17.96765 122.29849 1172 ft 149 kts 285°
2026-04-18 10:02 -17.96484 122.28795 982 ft 149 kts 284°
2026-04-18 10:02 -17.96204 122.27743 796 ft 149 kts 285°
2026-04-18 10:03 -17.95914 122.26705 612 ft 149 kts 285°
2026-04-18 10:03 -17.95639 122.25667 439 ft 147 kts 283°
2026-04-18 10:03 -17.95377 122.24639 252 ft 146 kts 282°
2026-04-18 10:03 -17.95110 122.23606 61 ft 145 kts 284°
2026-04-18 10:04 -17.94856 122.22652 31 ft 107 kts 286°
2026-04-18 10:04 -17.94757 122.22259 31 ft 29 kts 283°
2026-04-18 10:04 -17.94713 122.22070 31 ft 24 kts 285°
2026-04-18 10:04 -17.94660 122.21905 31 ft 18 kts 286°
2026-04-18 10:05 -17.94646 122.21809 31 ft 7 kts 325°
2026-04-18 10:05 -17.94639 122.21851 31 ft 9 kts 105°
2026-04-18 10:05 -17.94689 122.22031 31 ft 44 kts 108°
2026-04-18 10:05 -17.94806 122.22433 31 ft 63 kts 102°
2026-04-18 10:06 -17.94915 122.22876 31 ft 61 kts 104°
2026-04-18 10:06 -17.95003 122.23202 31 ft 30 kts 105°
2026-04-18 10:06 -17.95031 122.23324 31 ft 9 kts 104°
2026-04-18 10:06 -17.95068 122.23386 31 ft 11 kts 163°
2026-04-18 10:07 -17.95146 122.23373 31 ft 10 kts 197°
2026-04-18 10:07 -17.95196 122.23313 31 ft 11 kts 227°
2026-04-18 10:07 -17.95278 122.23280 31 ft 12 kts 191°
2026-04-18 10:07 -17.95312 122.23312 31 ft 0 kts 99°